Regional Weather Roundup
Issued by NWS

Home | Current Version | Previous Version | Graphics & Text | Print | Product List | Glossary On
Versions: 1 2 3 4 5 6 7 8 9 10 11 12 13 14 15 16 17 18 19 20 21 22 23 24 25 26 27 28 29 30 31 32 33 34 35 36 37 38 39 40 41 42 43 44 45 46 47 48 49 50
573
ASUS45 KBOU 060507
RWRCO

WEATHER ROUNDUP FOR COLORADO
NATIONAL WEATHER SERVICE DENVER/BOULDER CO
1000 PM MST FRI FEB 05 2016

NOTE: "FAIR" INDICATES FEW OR NO CLOUDS BELOW 12000 FEET WITH NO
SIGNIFICANT WEATHER AND/OR OBSTRUCTIONS TO VISIBILITY.

COZ001>005-013-030-031-060600-
...NORTHWEST COLORADO...

CITY           SKY/WX    TMP DP  RH WIND       PRES   REMARKS
CRAIG          CLOUDY    -5  -9  83 CALM      30.49R
HAYDEN         CLOUDY    12   7  79 E10       30.45S WCI  -1
MEEKER         CLOUDY     5   0  79 NE6       30.47S WCI  -6
MOUNT WERNER   NOT AVBL
STEAMBOAT SPGS CLOUDY     7   4  89 CALM      30.46R
WALDEN         CLOUDY     3  -4  72 SE9       30.39S WCI -11
$$

COZ006>008-011-060600-
...WEST CENTRAL VALLEYS...

CITY           SKY/WX    TMP DP  RH WIND       PRES   REMARKS
GRAND JUNCTION CLOUDY    10   8  92 CALM      30.56S
MONTROSE       CLOUDY    13   6  74 S6        30.55S WCI   4
EAGLE          CLEAR      9   7  92 CALM      30.53R
RIFLE          CLOUDY     9   3  77 CALM      30.55R
DELTA          CLOUDY    17  13  83 E6        30.57S WCI   9
NUCLA          CLOUDY    18   9  68 SE9       30.53F WCI   6
$$

COZ017>023-064>068-060600-
...SOUTHWEST COLORADO...

CITY           SKY/WX    TMP DP  RH WIND       PRES   REMARKS
DURANGO        CLOUDY    10   5  80 CALM      30.43R
CORTEZ         CLOUDY    13   7  77 E5        30.47S WCI   5
PAGOSA SPRINGS CLOUDY     4   1  86 CALM      30.42R
TELLURIDE      CLOUDY    11   3  68 SE6       30.43F WCI   2
WOLF CREEK PAS CLOUDY    14 -13  29 N12G24    30.37R WCI   0
$$

COZ009-010-012-014-032>034-037-058>063-060600-
...CENTRAL COLORADO...

CITY           SKY/WX    TMP DP  RH WIND       PRES   REMARKS
ASPEN          CLOUDY     5  -1  76 S8        30.46R WCI  -8
BUENA VISTA    CLOUDY    18   5  55 NW29G39   30.32S WCI  -1
COPPER MTN     CLOUDY     7   0  72 W12G17    30.32R WCI  -9
BERTHOUD PASS  FAIR       0 -13  55 NW25G33   30.26R WCI -25
COTTONWOOD PAS CLOUDY    19  -4  35 W12G17    30.30R WCI   7
GUNNISON       CLOUDY    -8 N/A N/A CALM      30.52R
KREMMLING      CLOUDY    -8 -13  77 CALM      30.49S
LEADVILLE      CLOUDY     4  -1  80 N12       30.36R WCI -12
MONARCH PASS   CLOUDY     3  -2  78 MISG      30.39R
SALIDA         NOT AVBL
SUNLIGHT       CLOUDY     9   5  85 CALM        N/A
WILKERSON PASS CLOUDY    14  -6  41 NW12G31   30.26S WCI   0
$$

COZ069>075-060600-
...SAN LUIS VALLEY/SANGRE DE CRISTO MOUNTAINS...

CITY           SKY/WX    TMP DP  RH WIND       PRES   REMARKS
ALAMOSA        CLOUDY     4  -3  73 S7        30.39R WCI  -8
LA VETA PASS   CLOUDY    10   1  67 MISG      30.27S
SAGUACHE       CLOUDY    14   5  67 NW16      30.40R WCI  -2
$$

COZ035-036-038>040-060600-
...NORTHERN COLORADO FRONT RANGE...

CITY           SKY/WX    TMP DP  RH WIND       PRES   REMARKS
DENVER INTL AP CLOUDY    19   6  57 SW14      30.25F WCI   6
DMNS CITY PARK   N/A     22  11  63 S8        30.27S WCI  13
AURORA         CLEAR     20   6  56 S9        30.26F WCI   9
FRONT RANGE AP NOT AVBL
ERIE MUNI ARPT CLOUDY    13   9  85 CALM      30.27S
BOULDER MUN AP CLOUDY    23  16  74 CALM      30.26S
CENTENNIAL     CLOUDY    21   6  52 S7        30.26F WCI  12
BROOMFIELD     CLEAR     25  12  58 CALM      30.26F
FORT COLLINS   CLOUDY    21  10  63 CALM      30.28S
LONGMONT       CLOUDY    15   7  70 W5        30.28F WCI   7
$$

COZ041-046-047-076>085-087-088-060600-
...PIKES PEAK/PALMER DIVIDE AND SOUTHERN FOOTHILLS...

CITY           SKY/WX    TMP DP  RH WIND       PRES   REMARKS
COLO. SPRINGS  CLOUDY    10   2  69 N5        30.30F WCI   2
A. F. ACADEMY  CLOUDY     5   0  77 N8        30.28F WCI  -8
SCHRIEVER AFB  FAIR      15   7  71 W8        30.30F WCI   3
ELLICOTT       NOT AVBL
FALCON         CLOUDY    15   6  68 W10       30.28F WCI   3
FORT CARSON    CLOUDY    30  14  51 SE6       30.25S WCI  24
LIMON          CLOUDY     5  -1  76 N5        30.30F WCI  -4
MONUMENT HILL  CLOUDY    16   3  57 SW14      30.26F WCI   1
TRINIDAD       CLOUDY    18  11  74 W9        30.33R WCI   7
$$

COZ042>045-048>051-090-091-060600-
...NORTHEAST COLORADO...

CITY           SKY/WX    TMP DP  RH WIND       PRES   REMARKS
GREELEY ARPT   CLOUDY     7   3  85 CALM      30.30S
AKRON          CLOUDY    14   7  73 SW9       30.27S WCI   2
BURLINGTON     CLEAR     17   7  64 W15       30.29S WCI   2
WRAY           CLEAR     18  12  76 W8        30.30R WCI   8
STERLING       CLOUDY    16  10  79 S5        30.28R WCI   9
HOLYOKE        CLEAR     30  18  59 NW14      30.28S WCI  20
FORT MORGAN    CLOUDY    11   6  81 W9        30.30S WCI  -2
$$

COZ086-089-092>099-060600-
...SOUTHEAST COLORADO...

CITY           SKY/WX    TMP DP  RH WIND       PRES   REMARKS
PUEBLO         CLOUDY    20  12  71 E3        30.34S
LA JUNTA       CLOUDY    18  13  80 CALM      30.36R
LAMAR          CLEAR     23  18  81 W8        30.33R WCI  14
SPRINGFIELD      N/A     19  15  84 W10       30.31F WCI   7
$$




USA.gov is the U.S. government's official web portal to all federal, state and local government web resources and services.